1493852401.1,12645,13.5,73768.3,0.41,-0.33,-0.33,0,*4C
1493852402.29,12646,13.5,73774.8,0.41,-0.33,-0.33,0,*4F
1493852403.46,12647,13.5,73770.8,0.43,-0.33,-0.33,0,*4C
1493852404.65,12648,13.5,73774.0,0.41,-0.33,-0.33,0,*41
1493852405.85,12649,13.5,73768.8,0.41,-0.41,-0.33,0,*45
1493852407.04,12650,13.5,73772.0,0.41,-0.33,-0.33,0,*48
1493852408.22,12651,13.5,73774.8,0.43,-0.41,-0.33,0,*4E
1493852409.41,12652,13.5,73766.3,0.41,-0.33,-0.33,0,*4A
1493852410.58,12653,13.5,73768.8,0.43,-0.33,-0.33,0,*49
1493852411.75,12654,13.5,73762.8,0.43,-0.33,-0.33,0,*4E
1493852412.94,12655,13.5,73772.3,0.41,-0.33,-0.33,0,*4D
1493852414.11,12656,13.5,73768.5,0.43,-0.33,-0.33,0,*4C
1493852415.3,12657,13.5,73772.5,0.41,-0.33,-0.33,0,*4F
1493852416.49,12658,13.5,73774.8,0.41,-0.33,-0.33,0,*40
1493852417.68,12659,13.5,73770.8,0.41,-0.33,-0.33,0,*41
1493852418.85,12660,13.5,73774.0,0.43,-0.33,-0.33,0,*49
1493852420.04,12661,13.5,73772.0,0.41,-0.33,-0.33,0,*4A
1493852421.21,12662,13.5,73768.8,0.43,-0.33,-0.33,0,*4B
1493852422.38,12663,13.5,73764.3,0.43,-0.33,-0.33,0,*4A
1493852423.54,12664,13.5,73764.0,0.43,-0.33,-0.29,0,*46
1493852424.73,12665,13.5,73762.8,0.41,-0.33,-0.29,0,*45
1493852425.91,12666,13.5,73760.8,0.41,-0.33,-0.29,0,*46
1493852427.1,12667,13.5,73760.8,0.41,-0.33,-0.29,0,*47
1493852428.29,12668,13.5,73762.0,0.41,-0.33,-0.29,0,*48
1493852429.45,12669,13.5,73762.3,0.43,-0.33,-0.29,0,*4B
1493852430.64,12670,13.5,73758.5,0.41,-0.33,-0.29,0,*41
1493852431.82,12671,13.5,73756.3,0.41,-0.33,-0.29,0,*40
1493852433.01,12672,13.5,73756.3,0.41,-0.33,-0.29,0,*43
1493852434.19,12673,13.5,73760.5,0.41,-0.33,-0.29,0,*42
1493852435.36,12674,13.5,73766.8,0.43,-0.33,-0.33,0,*4C
1493852436.55,12675,13.5,73764.0,0.41,-0.33,-0.33,0,*4F
1493852437.72,12676,13.5,73762.3,0.43,-0.33,-0.33,0,*4E
1493852438.91,12677,13.5,73764.5,0.41,-0.33,-0.33,0,*4D
1493852440.11,12678,13.5,73766.3,0.41,-0.33,-0.33,0,*42
1493852441.3,12679,13.5,73760.5,0.41,-0.29,-0.33,0,*48
1493852442.49,12680,13.5,73764.3,0.41,-0.29,-0.33,0,*4E
1493852443.66,12681,13.5,73768.5,0.43,-0.33,-0.33,0,*46
1493852444.83,12682,13.5,73766.0,0.43,-0.41,-0.33,0,*40
1493852446.0,12683,13.5,73766.0,0.43,-0.33,-0.33,0,*44
1493852447.19,12684,13.5,73764.3,0.41,-0.33,-0.33,0,*41
1493852448.36,12685,13.5,73764.3,0.43,-0.33,-0.41,0,*47
1493852449.56,12686,13.5,73766.0,0.41,-0.33,-0.33,0,*43
1493852450.75,12687,13.5,73768.8,0.41,-0.33,-0.33,0,*42
1493852451.93,12688,13.5,73770.5,0.41,-0.33,-0.29,0,*46
1493852453.12,12689,13.5,73764.5,0.41,-0.33,-0.29,0,*47
1493852454.33,12690,13.5,73766.3,0.41,-0.33,-0.27,0,*41
1493852455.52,12691,13.5,73770.0,0.43,-0.33,-0.27,0,*42
1493852456.71,12692,13.5,73772.3,0.41,-0.33,-0.29,0,*4D
1493852457.89,12693,13.5,73768.3,0.41,-0.33,-0.29,0,*4C
1493852459.06,12694,13.5,73772.0,0.43,-0.29,-0.29,0,*42
1493852460.22,12695,13.5,73782.8,0.43,-0.29,-0.29,0,*43
1493852461.4,12696,13.5,73776.5,0.41,-0.29,-0.29,0,*42
1493852462.59,12697,13.5,73778.5,0.41,-0.29,-0.29,0,*43
1493852463.75,12698,13.56,73778.8,0.43,-0.29,-0.29,0,*4E
1493852464.91,12699,13.5,73776.8,0.43,-0.29,-0.29,0,*4F
1493852466.1,12700,13.56,73774.0,0.41,-0.29,-0.29,0,*4C
1493852467.28,12701,13.5,73774.5,0.41,-0.29,-0.29,0,*4D
1493852468.47,12702,13.5,73780.8,0.41,-0.33,-0.29,0,*45
1493852469.65,12703,13.5,73772.8,0.41,-0.33,-0.29,0,*44
1493852470.82,12704,13.5,73776.8,0.43,-0.33,-0.29,0,*41
1493852471.98,12705,13.5,73774.8,0.43,-0.33,-0.29,0,*40
1493852473.14,12706,13.5,73776.0,0.43,-0.33,-0.29,0,*43
1493852474.31,12707,13.5,73768.5,0.43,-0.33,-0.29,0,*42
1493852475.47,12708,13.5,73778.3,0.43,-0.33,-0.29,0,*4D
1493852476.65,12709,13.5,73778.8,0.41,-0.33,-0.29,0,*4E
1493852477.84,12710,13.5,73782.0,0.41,-0.29,-0.29,0,*4D
1493852479.02,12711,13.5,73790.3,0.41,-0.29,-0.29,0,*4C
1493852480.21,12712,13.56,73786.0,0.41,-0.33,-0.29,0,*44
1493852481.4,12713,13.5,73790.3,0.41,-0.33,-0.29,0,*45
1493852482.58,12714,13.5,73786.3,0.41,-0.33,-0.29,0,*42
1493852483.75,12715,13.5,73782.5,0.43,-0.33,-0.33,0,*4A
1493852484.94,12716,13.56,73792.3,0.41,-0.33,-0.33,0,*4B
1493852486.13,12717,13.5,73794.3,0.41,-0.33,-0.33,0,*4A
1493852487.31,12718,13.5,73790.0,0.43,-0.41,-0.33,0,*42
1493852488.5,12719,13.5,73788.8,0.41,-0.33,-0.33,0,*44
1493852489.69,12720,13.5,73790.8,0.41,-0.33,-0.33,0,*4E
1493852490.89,12721,13.5,73792.5,0.41,-0.33,-0.33,0,*4F
1493852492.05,12722,13.56,73796.0,0.43,-0.33,-0.33,0,*4E
1493852493.22,12723,13.5,73794.3,0.43,-0.33,-0.33,0,*4F
1493852494.41,12724,13.5,73790.0,0.41,-0.33,-0.33,0,*4A
1493852495.58,12725,13.5,73788.5,0.43,-0.33,-0.29,0,*42
1493852496.76,12726,13.5,73790.0,0.41,-0.29,-0.29,0,*48
1493852497.92,12727,13.5,73788.5,0.43,-0.29,-0.29,0,*4B
1493852499.11,12728,13.5,73778.8,0.41,-0.29,-0.29,0,*46
1493852500.29,12729,13.5,73776.3,0.41,-0.29,-0.29,0,*47
1493852501.48,12730,13.56,73780.5,0.41,-0.29,-0.29,0,*4F
1493852502.66,12731,13.5,73778.3,0.41,-0.29,-0.29,0,*4E
1493852503.83,12732,13.5,73778.8,0.43,-0.29,-0.29,0,*4F
1493852504.99,12733,13.56,73778.3,0.43,-0.29,-0.29,0,*4E
1493852506.17,12734,13.5,73780.3,0.41,-0.29,-0.29,0,*4B
1493852507.36,12735,13.5,73786.3,0.41,-0.29,-0.33,0,*41
1493852508.53,12736,13.5,73782.8,0.43,-0.29,-0.29,0,*4B
1493852509.71,12737,13.5,73776.5,0.41,-0.29,-0.29,0,*48
1493852510.9,12738,13.5,73776.0,0.41,-0.33,-0.29,0,*4C
1493852512.09,12739,13.5,73778.0,0.41,-0.33,-0.29,0,*4D
1493852513.27,12740,13.5,73772.8,0.41,-0.33,-0.29,0,*43
1493852514.46,12741,13.5,73768.5,0.41,-0.29,-0.29,0,*49
1493852515.64,12742,13.56,73774.3,0.41,-0.29,-0.29,0,*4A
1493852516.83,12743,13.5,73770.5,0.41,-0.29,-0.29,0,*4B
1493852518.01,12744,13.56,73766.3,0.41,-0.29,-0.29,0,*4C
1493852519.17,12745,13.56,73770.3,0.43,-0.29,-0.29,0,*4F
1493852520.33,12746,13.5,73766.0,0.43,-0.29,-0.29,0,*4C
1493852521.5,12747,13.56,73774.3,0.43,-0.29,-0.29,0,*4D
1493852522.69,12748,13.5,73770.3,0.41,-0.33,-0.33,0,*40
1493852523.88,12749,13.5,73780.3,0.41,-0.33,-0.33,0,*41
1493852525.05,12750,13.56,73778.3,0.43,-0.33,-0.33,0,*4B
1493852526.22,12751,13.5,73782.3,0.43,-0.33,-0.33,0,*4A
1493852527.39,12752,13.56,73780.5,0.43,-0.33,-0.33,0,*49
1493852528.59,12753,13.5,73776.8,0.41,-0.41,-0.33,0,*4F
1493852529.75,12754,13.5,73778.0,0.43,-0.33,-0.29,0,*44
1493852530.91,12755,13.5,73774.8,0.43,-0.33,-0.29,0,*45
1493852532.07,12756,13.5,73772.5,0.43,-0.33,-0.29,0,*46
1493852533.26,12757,13.56,73778.5,0.41,-0.33,-0.29,0,*45
1493852534.42,12758,13.5,73782.0,0.43,-0.33,-0.29,0,*48
1493852535.61,12759,13.5,73780.5,0.41,-0.33,-0.29,0,*4B
1493852536.79,12760,13.56,73790.0,0.41,-0.33,-0.29,0,*41
1493852537.97,12761,13.5,73786.8,0.43,-0.33,-0.41,0,*4C
1493852539.13,12762,13.5,73780.8,0.43,-0.33,-0.33,0,*4A
1493852540.3,12763,13.56,73782.8,0.43,-0.33,-0.33,0,*4B
1493852541.47,12764,13.5,73780.3,0.43,-0.33,-0.33,0,*4C
1493852542.64,12765,13.56,73782.5,0.43,-0.33,-0.33,0,*4D
1493852543.84,12766,13.5,73782.0,0.41,-0.41,-0.33,0,*49
1493852545.01,12767,13.5,73784.0,0.43,-0.33,-0.33,0,*4F
1493852546.21,12768,13.5,73786.0,0.41,-0.41,-0.41,0,*42
1493852547.41,12769,13.56,73780.0,0.41,-0.33,-0.41,0,*46
1493852548.57,12770,13.56,73782.8,0.43,-0.33,-0.33,0,*49
1493852549.75,12771,13.56,73778.8,0.43,-0.41,-0.33,0,*4D
1493852550.94,12772,13.56,73778.5,0.41,-0.33,-0.33,0,*49
1493852552.13,12773,13.56,73774.3,0.41,-0.33,-0.33,0,*48
1493852553.33,12774,13.56,73774.5,0.41,-0.33,-0.33,0,*4F
1493852554.52,12775,13.56,73772.8,0.41,-0.33,-0.33,0,*4E
1493852555.69,12776,13.5,73770.5,0.43,-0.33,-0.33,0,*4F
1493852556.89,12777,13.56,73762.0,0.41,-0.41,-0.33,0,*49
1493852558.08,12778,13.56,73764.3,0.41,-0.33,-0.41,0,*46
1493852559.28,12779,13.56,73770.8,0.41,-0.41,-0.33,0,*47
1493852560.47,12780,13.56,73772.8,0.41,-0.33,-0.33,0,*44
1493852561.67,12781,13.56,73774.8,0.41,-0.41,-0.33,0,*40
1493852562.86,12782,13.5,73768.3,0.41,-0.33,-0.33,0,*46
1493852564.05,12783,13.5,73764.0,0.41,-0.33,-0.33,0,*47
1493852565.25,12784,13.56,73762.8,0.41,-0.33,-0.33,0,*40
1493852566.44,12785,13.56,73766.3,0.41,-0.41,-0.33,0,*44
1493852567.61,12786,13.56,73770.8,0.43,-0.33,-0.33,0,*40
1493852568.78,12787,13.56,73776.5,0.43,-0.33,-0.33,0,*41
1493852569.96,12788,13.5,73768.8,0.43,-0.41,-0.33,0,*4B
1493852571.13,12789,13.56,73762.0,0.43,-0.33,-0.41,0,*4A
1493852572.33,12790,13.56,73752.8,0.41,-0.41,-0.33,0,*40
1493852573.52,12791,13.56,73754.0,0.41,-0.33,-0.41,0,*41
1493852574.72,12792,13.56,73752.5,0.41,-0.41,-0.33,0,*42
1493852575.89,12793,13.5,73746.8,0.43,-0.33,-0.33,0,*44
1493852577.08,12794,13.56,73760.8,0.41,-0.33,-0.33,0,*41
1493852578.28,12795,13.56,73754.5,0.41,-0.33,-0.33,0,*40
1493852579.44,12796,13.56,73748.5,0.43,-0.33,-0.33,0,*41
1493852580.64,12797,13.56,73746.3,0.41,-0.33,-0.33,0,*42
1493852581.83,12798,13.56,73748.5,0.41,-0.41,-0.33,0,*48
1493852583.0,12799,13.56,73742.8,0.43,-0.33,-0.33,0,*4E
1493852584.19,12800,13.56,73748.5,0.41,-0.33,-0.33,0,*43
1493852585.39,12801,13.56,73752.3,0.41,-0.33,-0.33,0,*42
1493852586.56,12802,13.56,73752.3,0.43,-0.33,-0.33,0,*43
1493852587.73,12803,13.56,73752.0,0.43,-0.41,-0.33,0,*47
1493852588.92,12804,13.56,73756.3,0.41,-0.33,-0.33,0,*47
1493852590.1,12805,13.56,73756.0,0.43,-0.41,-0.33,0,*41
1493852591.3,12806,13.56,73756.5,0.41,-0.41,-0.41,0,*45
1493852592.49,12807,13.56,73754.0,0.41,-0.33,-0.33,0,*44
1493852593.7,12808,13.56,73752.0,0.41,-0.41,-0.41,0,*4B
1493852594.9,12809,13.56,73750.0,0.41,-0.41,-0.41,0,*4A
1493852596.1,12810,13.56,73750.8,0.41,-0.33,-0.41,0,*47
1493852597.29,12811,13.56,73754.0,0.41,-0.41,-0.33,0,*46
1493852598.49,12812,13.56,73748.8,0.41,-0.33,-0.33,0,*40
1493852599.69,12813,13.56,73752.0,0.41,-0.41,-0.41,0,*41
1493852600.89,12814,13.56,73756.3,0.41,-0.41,-0.41,0,*46
1493852602.09,12815,13.56,73762.0,0.41,-0.33,-0.41,0,*42
1493852603.26,12816,13.56,73762.0,0.43,-0.33,-0.41,0,*43
1493852604.45,12817,13.56,73766.0,0.41,-0.33,-0.33,0,*45
1493852605.65,12818,13.56,73764.5,0.41,-0.41,-0.33,0,*4F
1493852606.84,12819,13.56,73754.8,0.41,-0.33,-0.33,0,*4B
1493852608.04,12820,13.56,73744.0,0.41,-0.33,-0.41,0,*44
1493852609.24,12821,13.56,73746.8,0.41,-0.41,-0.41,0,*40
1493852610.43,12822,13.56,73748.5,0.41,-0.33,-0.33,0,*43
1493852611.62,12823,13.56,73742.0,0.41,-0.33,-0.33,0,*42
1493852612.79,12824,13.56,73756.0,0.43,-0.33,-0.33,0,*47
1493852613.98,12825,13.56,73748.5,0.41,-0.33,-0.33,0,*44
1493852615.18,12826,13.56,73752.8,0.41,-0.33,-0.33,0,*47
1493852616.37,12827,13.56,73752.0,0.41,-0.33,-0.33,0,*46
1493852617.57,12828,13.56,73750.3,0.41,-0.41,-0.33,0,*4C
1493852618.76,12829,13.56,73764.3,0.41,-0.33,-0.41,0,*4D
1493852619.96,12830,13.56,73762.0,0.41,-0.41,-0.41,0,*40
1493852621.16,12831,13.56,73758.0,0.41,-0.33,-0.33,0,*41
1493852622.35,12832,13.56,73766.3,0.41,-0.33,-0.33,0,*42
1493852623.54,12833,13.56,73774.3,0.41,-0.33,-0.41,0,*46
1493852624.75,12834,13.56,73758.5,0.41,-0.41,-0.41,0,*44
1493852625.95,12835,13.56,73752.0,0.41,-0.41,-0.41,0,*45
1493852627.13,12836,13.56,73752.3,0.43,-0.41,-0.41,0,*44
1493852628.33,12837,13.56,73758.0,0.41,-0.41,-0.41,0,*47
1493852629.53,12838,13.56,73758.3,0.41,-0.41,-0.33,0,*4D
1493852630.71,12839,13.56,73762.8,0.43,-0.41,-0.41,0,*4B
1493852631.91,12840,13.56,73750.8,0.41,-0.41,-0.41,0,*47
1493852633.12,12841,13.56,73758.0,0.41,-0.41,-0.41,0,*46
1493852634.32,12842,13.56,73756.5,0.41,-0.41,-0.41,0,*45
1493852635.52,12843,13.56,73744.3,0.41,-0.41,-0.41,0,*44
1493852636.72,12844,13.56,73736.8,0.41,-0.33,-0.41,0,*46
1493852637.92,12845,13.56,73732.3,0.41,-0.45,-0.41,0,*46
1493852639.11,12846,13.56,73736.0,0.41,-0.45,-0.33,0,*40
1493852640.31,12847,13.56,73732.3,0.41,-0.33,-0.41,0,*45
1493852641.48,12848,13.56,73746.0,0.39,-0.45,-0.37,0,*45
1493852642.66,12849,13.56,73758.5,0.39,-0.49,-0.37,0,*48
1493852643.83,12850,13.56,73748.8,0.39,-0.49,-0.45,0,*45
1493852645.0,12851,13.56,73750.8,0.39,-0.49,-0.45,0,*44
1493852646.19,12852,13.56,73752.0,0.41,-0.41,-0.45,0,*40
1493852647.39,12853,13.56,73742.3,0.41,-0.41,-0.41,0,*45
1493852648.6,12854,13.56,73734.8,0.41,-0.41,-0.41,0,*42
1493852649.8,12855,13.56,73722.8,0.41,-0.45,-0.41,0,*47
1493852651.0,12856,13.56,73730.8,0.41,-0.45,-0.41,0,*44
1493852652.19,12857,13.56,73734.8,0.41,-0.53,-0.45,0,*46
1493852653.37,12858,13.56,73740.5,0.43,-0.41,-0.41,0,*4C
1493852654.57,12859,13.56,73738.8,0.41,-0.53,-0.41,0,*4C
1493852655.76,12860,13.56,73746.8,0.41,-0.45,-0.45,0,*45
1493852656.93,12861,13.56,73746.0,0.39,-0.49,-0.45,0,*47
1493852658.1,12862,13.56,73748.3,0.39,-0.57,-0.45,0,*4B
1493852659.28,12863,13.56,73748.8,0.39,-0.49,-0.49,0,*49
1493852660.45,12864,13.56,73748.3,0.39,-0.49,-0.49,0,*4E
1493852661.64,12865,13.56,73744.5,0.37,-0.49,-0.53,0,*4A
1493852662.82,12866,13.56,73744.3,0.39,-0.49,-0.49,0,*4C
1493852664.01,12867,13.56,73748.5,0.41,-0.45,-0.45,0,*42
1493852665.2,12868,13.56,73754.3,0.41,-0.53,-0.45,0,*4A
1493852666.37,12869,13.56,73748.5,0.39,-0.49,-0.57,0,*4C
1493852667.54,12870,13.56,73748.3,0.39,-0.49,-0.49,0,*4B
1493852668.71,12871,13.56,73752.8,0.39,-0.49,-0.57,0,*45
1493852669.88,12872,13.56,73746.5,0.39,-0.49,-0.57,0,*46
1493852671.06,12873,13.56,73740.8,0.39,-0.57,-0.49,0,*47
1493852672.25,12874,13.56,73742.0,0.37,-0.61,-0.53,0,*40
1493852673.42,12875,13.56,73750.3,0.39,-0.57,-0.49,0,*41
1493852674.6,12876,13.56,73744.8,0.39,-0.57,-0.57,0,*4D
1493852675.77,12877,13.56,73746.5,0.39,-0.49,-0.49,0,*4C
1493852676.96,12878,13.56,73746.8,0.41,-0.53,-0.53,0,*4C
1493852678.13,12879,13.56,73746.0,0.39,-0.49,-0.57,0,*4D
1493852679.3,12880,13.56,73744.5,0.39,-0.49,-0.49,0,*44
1493852680.48,12881,13.56,73742.8,0.39,-0.49,-0.49,0,*45
1493852681.65,12882,13.56,73738.8,0.39,-0.49,-0.49,0,*46
1493852682.84,12883,13.56,73748.3,0.37,-0.61,-0.53,0,*48
1493852684.03,12884,13.56,73746.3,0.37,-0.61,-0.53,0,*4F
1493852685.22,12885,13.56,73756.5,0.37,-0.61,-0.53,0,*4E
1493852686.41,12886,13.56,73746.3,0.37,-0.53,-0.53,0,*4C
1493852687.61,12887,13.56,73730.3,0.37,-0.49,-0.49,0,*4D
1493852688.81,12888,13.56,73742.3,0.37,-0.49,-0.41,0,*4A
1493852690.01,12889,13.56,73740.8,0.37,-0.53,-0.49,0,*48
1493852691.18,12890,13.56,73738.8,0.39,-0.53,-0.53,0,*45
1493852692.35,12891,13.56,73738.3,0.39,-0.53,-0.53,0,*44
1493852693.52,12892,13.56,73742.0,0.39,-0.49,-0.45,0,*4B
1493852694.7,12893,13.56,73746.8,0.39,-0.57,-0.37,0,*40
1493852695.89,12894,13.56,73732.3,0.37,-0.49,-0.49,0,*4F
1493852697.07,12895,13.56,73728.0,0.39,-0.45,-0.45,0,*40
1493852698.24,12896,13.56,73732.5,0.39,-0.45,-0.37,0,*46
1493852699.42,12897,13.56,73742.0,0.39,-0.45,-0.37,0,*47
1493852700.62,12898,13.56,73744.0,0.37,-0.41,-0.49,0,*4B
1493852701.79,12899,13.56,73750.3,0.39,-0.37,-0.45,0,*49
1493852702.97,12900,13.56,73748.8,0.39,-0.45,-0.45,0,*4D
1493852704.14,12901,13.56,73748.5,0.39,-0.45,-0.37,0,*49
1493852705.32,12902,13.56,73750.0,0.39,-0.45,-0.37,0,*4A
1493852706.52,12903,13.56,73750.3,0.37,-0.49,-0.41,0,*48
1493852707.71,12904,13.56,73750.0,0.37,-0.49,-0.49,0,*47
1493852708.89,12905,13.56,73750.8,0.39,-0.45,-0.37,0,*4D
1493852710.06,12906,13.56,73742.0,0.39,-0.45,-0.45,0,*4B
1493852711.26,12907,13.63,73758.8,0.37,-0.49,-0.41,0,*4C
1493852712.43,12908,13.56,73756.5,0.39,-0.49,-0.49,0,*45
1493852713.63,12909,13.56,73746.3,0.37,-0.49,-0.49,0,*4A
1493852714.81,12910,13.56,73746.8,0.39,-0.37,-0.37,0,*4C
1493852716.0,12911,13.56,73750.3,0.37,-0.49,-0.45,0,*4F
1493852717.18,12912,13.56,73744.8,0.39,-0.49,-0.41,0,*46
1493852718.38,12913,13.56,73758.0,0.37,-0.49,-0.41,0,*49
1493852719.57,12914,13.56,73752.0,0.37,-0.49,-0.49,0,*46
1493852720.74,12915,13.63,73752.3,0.39,-0.45,-0.45,0,*49
1493852721.94,12916,13.56,73752.3,0.37,-0.49,-0.49,0,*44
1493852723.14,12917,13.56,73752.5,0.37,-0.49,-0.41,0,*4D
1493852724.34,12918,13.56,73746.8,0.37,-0.49,-0.41,0,*42
1493852725.54,12919,13.56,73748.3,0.37,-0.49,-0.49,0,*4B
1493852726.71,12920,13.56,73728.5,0.39,-0.37,-0.45,0,*4A
1493852727.88,12921,13.56,73736.5,0.39,-0.49,-0.37,0,*47
1493852729.06,12922,13.63,73742.0,0.39,-0.45,-0.45,0,*4D
1493852730.25,12923,13.63,73738.0,0.37,-0.49,-0.49,0,*42
1493852731.45,12924,13.56,73740.8,0.37,-0.53,-0.49,0,*4E
1493852732.62,12925,13.63,73750.3,0.39,-0.45,-0.45,0,*4A
1493852733.8,12926,13.63,73742.3,0.39,-0.45,-0.49,0,*45
1493852734.97,12927,13.63,73744.3,0.39,-0.45,-0.45,0,*48
1493852736.17,12928,13.63,73744.8,0.37,-0.53,-0.53,0,*49
1493852737.37,12929,13.63,73746.5,0.37,-0.53,-0.49,0,*43
1493852738.56,12930,13.56,73742.3,0.37,-0.53,-0.49,0,*4B
1493852739.76,12931,13.63,73746.8,0.37,-0.53,-0.49,0,*4A
1493852740.93,12932,13.63,73744.8,0.39,-0.61,-0.49,0,*46
1493852742.13,12933,13.56,73740.0,0.37,-0.53,-0.53,0,*43
1493852743.33,12934,13.56,73746.0,0.37,-0.53,-0.49,0,*4F
1493852744.52,12935,13.56,73748.0,0.37,-0.53,-0.53,0,*45
1493852745.72,12936,13.63,73748.8,0.37,-0.53,-0.53,0,*46
1493852746.91,12937,13.56,73748.5,0.37,-0.53,-0.53,0,*47
1493852748.09,12938,13.63,73754.5,0.39,-0.57,-0.49,0,*49
1493852749.29,12939,13.63,73752.8,0.37,-0.53,-0.49,0,*42
1493852750.46,12940,13.63,73752.8,0.39,-0.49,-0.45,0,*45
1493852751.65,12941,13.56,73754.8,0.37,-0.61,-0.49,0,*4C
1493852752.85,12942,13.56,73756.3,0.37,-0.53,-0.49,0,*4E
1493852754.05,12943,13.63,73764.8,0.37,-0.53,-0.53,0,*44
1493852755.25,12944,13.63,73768.0,0.37,-0.53,-0.49,0,*48
1493852756.42,12945,13.63,73762.3,0.39,-0.45,-0.37,0,*49
1493852757.6,12946,13.63,73758.8,0.39,-0.49,-0.49,0,*4F
1493852758.79,12947,13.63,73760.5,0.37,-0.49,-0.53,0,*4B
1493852759.98,12948,13.56,73762.0,0.37,-0.49,-0.49,0,*4F
1493852761.18,12949,13.56,73762.8,0.37,-0.49,-0.41,0,*46
1493852762.38,12950,13.56,73756.5,0.37,-0.49,-0.41,0,*4E
1493852763.59,12951,13.63,73750.3,0.37,-0.41,-0.41,0,*47
1493852764.79,12952,13.63,73746.3,0.37,-0.49,-0.41,0,*4C
1493852765.99,12953,13.63,73744.0,0.37,-0.49,-0.49,0,*45
1493852767.19,12954,13.63,73746.5,0.37,-0.41,-0.41,0,*42
1493852768.39,12955,13.63,73746.0,0.37,-0.49,-0.41,0,*4B
1493852769.59,12956,13.63,73752.5,0.37,-0.49,-0.49,0,*40
1493852770.79,12957,13.63,73758.8,0.37,-0.41,-0.49,0,*49
1493852771.96,12958,13.63,73762.5,0.39,-0.45,-0.45,0,*40
1493852773.16,12959,13.63,73760.8,0.37,-0.49,-0.49,0,*4F
1493852774.37,12960,13.63,73762.5,0.37,-0.41,-0.41,0,*45
1493852775.57,12961,13.63,73756.8,0.37,-0.41,-0.49,0,*4C
1493852776.74,12962,13.63,73758.5,0.39,-0.45,-0.37,0,*4C
1493852777.92,12963,13.56,73760.8,0.39,-0.37,-0.37,0,*48
1493852779.13,12964,13.63,73766.0,0.37,-0.41,-0.41,0,*41
1493852780.3,12965,13.63,73764.0,0.39,-0.37,-0.37,0,*4E
1493852781.51,12966,13.56,73766.0,0.37,-0.41,-0.41,0,*43
1493852782.71,12967,13.63,73774.5,0.37,-0.41,-0.41,0,*42
1493852783.92,12968,13.63,73778.8,0.37,-0.41,-0.41,0,*4D
1493852785.13,12969,13.56,73776.3,0.37,-0.41,-0.41,0,*4C
1493852786.33,12970,13.63,73764.0,0.37,-0.41,-0.41,0,*44
1493852787.54,12971,13.63,73760.5,0.37,-0.41,-0.41,0,*45
1493852788.74,12972,13.63,73750.8,0.37,-0.41,-0.41,0,*46
1493852789.95,12973,13.63,73750.0,0.37,-0.41,-0.37,0,*46
1493852791.13,12974,13.63,73736.5,0.39,-0.37,-0.41,0,*4F
1493852792.33,12975,13.63,73740.5,0.37,-0.41,-0.41,0,*41
1493852793.54,12976,13.63,73748.5,0.37,-0.41,-0.41,0,*42
1493852794.75,12977,13.63,73758.3,0.37,-0.41,-0.41,0,*43
1493852795.95,12978,13.63,73752.0,0.37,-0.41,-0.41,0,*4C
1493852797.16,12979,13.63,73750.8,0.37,-0.41,-0.41,0,*4D
1493852798.34,12980,13.63,73760.3,0.39,-0.41,-0.41,0,*45
1493852799.52,12981,13.63,73756.0,0.39,-0.45,-0.37,0,*41
1493852800.71,12982,13.63,73758.3,0.37,-0.49,-0.37,0,*40
1493852801.92,12983,13.63,73752.0,0.37,-0.41,-0.41,0,*48
1493852803.12,12984,13.63,73752.8,0.37,-0.49,-0.41,0,*47
1493852804.32,12985,13.63,73758.5,0.37,-0.41,-0.41,0,*4E
1493852805.53,12986,13.56,73758.3,0.37,-0.41,-0.49,0,*45
1493852806.73,12987,13.63,73752.0,0.37,-0.41,-0.41,0,*4C
1493852807.94,12988,13.63,73754.0,0.37,-0.41,-0.41,0,*43
1493852809.14,12989,13.63,73754.8,0.37,-0.41,-0.41,0,*42
1493852810.35,12990,13.63,73756.3,0.37,-0.41,-0.41,0,*4A
1493852811.52,12991,13.63,73764.3,0.39,-0.37,-0.45,0,*40
1493852812.7,12992,13.63,73744.5,0.39,-0.37,-0.37,0,*46
1493852813.9,12993,13.56,73742.0,0.37,-0.41,-0.37,0,*48
1493852815.08,12994,13.63,73740.3,0.39,-0.37,-0.33,0,*44
1493852816.28,12995,13.63,73740.3,0.37,-0.41,-0.37,0,*4E
1493852817.46,12996,13.63,73744.3,0.39,-0.37,-0.33,0,*46
1493852818.66,12997,13.63,73746.0,0.37,-0.41,-0.41,0,*4D
1493852819.87,12998,13.63,73742.5,0.37,-0.41,-0.41,0,*42
1493852821.07,12999,13.63,73740.0,0.37,-0.41,-0.37,0,*42
1493852822.25,13000,13.63,73742.3,0.39,-0.41,-0.37,0,*44
1493852823.43,13001,13.63,73732.3,0.39,-0.41,-0.37,0,*45
1493852824.61,13002,13.63,73730.3,0.39,-0.41,-0.37,0,*46
1493852825.79,13003,13.63,73738.0,0.39,-0.41,-0.37,0,*47
1493852826.99,13004,13.63,73738.5,0.37,-0.41,-0.37,0,*4E
1493852828.17,13005,13.63,73740.8,0.39,-0.37,-0.33,0,*44
1493852829.37,13006,13.63,73732.3,0.37,-0.41,-0.37,0,*4C
1493852830.57,13007,13.63,73726.3,0.37,-0.41,-0.37,0,*4D
1493852831.78,13008,13.63,73736.3,0.37,-0.41,-0.37,0,*42
1493852832.98,13009,13.63,73740.5,0.37,-0.41,-0.37,0,*43
1493852834.18,13010,13.63,73728.8,0.37,-0.41,-0.37,0,*4B
1493852835.38,13011,13.63,73722.0,0.37,-0.49,-0.37,0,*42
1493852836.58,13012,13.63,73736.0,0.37,-0.41,-0.37,0,*49
1493852837.76,13013,13.63,73716.5,0.39,-0.37,-0.37,0,*47
1493852838.93,13014,13.63,73726.5,0.39,-0.37,-0.37,0,*40
1493852840.14,13015,13.63,73724.8,0.37,-0.41,-0.37,0,*4E
1493852841.34,13016,13.63,73728.5,0.37,-0.41,-0.37,0,*4D
1493852842.52,13017,13.63,73728.8,0.39,-0.37,-0.33,0,*47
1493852843.72,13018,13.63,73730.8,0.37,-0.41,-0.37,0,*43
1493852844.92,13019,13.63,73728.0,0.37,-0.41,-0.37,0,*42
1493852846.1,13020,13.63,73726.3,0.39,-0.37,-0.37,0,*47
1493852847.3,13021,13.63,73726.3,0.37,-0.41,-0.41,0,*48
1493852848.48,13022,13.63,73724.3,0.39,-0.37,-0.45,0,*40
1493852849.68,13023,13.63,73726.0,0.37,-0.41,-0.37,0,*4B
1493852850.85,13024,13.63,73724.0,0.39,-0.37,-0.33,0,*47
1493852852.03,13025,13.63,73728.5,0.39,-0.37,-0.33,0,*46
1493852853.23,13026,13.63,73722.3,0.37,-0.41,-0.37,0,*4E
1493852854.41,13027,13.63,73716.8,0.39,-0.37,-0.37,0,*40
1493852855.58,13028,13.63,73722.3,0.39,-0.37,-0.37,0,*4F
1493852856.76,13029,13.63,73720.0,0.39,-0.37,-0.37,0,*4E
1493852857.97,13030,13.63,73722.5,0.37,-0.41,-0.41,0,*48
1493852859.17,13031,13.63,73724.0,0.37,-0.41,-0.41,0,*49
1493852860.35,13032,13.63,73724.5,0.39,-0.37,-0.37,0,*44
1493852861.55,13033,13.63,73726.8,0.37,-0.41,-0.41,0,*4B
1493852862.73,13034,13.63,73730.5,0.39,-0.37,-0.37,0,*42
1493852863.91,13035,13.63,73726.8,0.39,-0.37,-0.37,0,*43
1493852865.11,13036,13.63,73732.0,0.37,-0.41,-0.49,0,*46
1493852866.28,13037,13.63,73728.5,0.39,-0.33,-0.37,0,*45
1493852867.49,13038,13.63,73728.3,0.37,-0.41,-0.41,0,*40
1493852868.67,13039,13.63,73724.8,0.39,-0.37,-0.37,0,*4F
1493852869.87,13040,13.63,73728.8,0.37,-0.41,-0.49,0,*47
1493852871.04,13041,13.63,73708.5,0.39,-0.37,-0.37,0,*40
1493852872.22,13042,13.63,73716.3,0.39,-0.37,-0.33,0,*47
1493852873.42,13043,13.63,73722.8,0.37,-0.41,-0.37,0,*4D
1493852874.63,13044,13.63,73712.8,0.37,-0.41,-0.37,0,*4A
1493852875.8,13045,13.63,73716.3,0.39,-0.41,-0.37,0,*45
1493852877.0,13046,13.63,73726.5,0.37,-0.37,-0.33,0,*4D
1493852878.18,13047,13.63,73724.8,0.39,-0.37,-0.33,0,*42
1493852879.36,13048,13.63,73732.0,0.39,-0.37,-0.33,0,*4D
1493852880.53,13049,13.63,73730.8,0.39,-0.37,-0.33,0,*4C
1493852881.71,13050,13.63,73714.0,0.39,-0.37,-0.33,0,*44
1493852882.91,13051,13.63,73730.0,0.37,-0.41,-0.37,0,*4E
1493852884.08,13052,13.63,73714.8,0.39,-0.37,-0.37,0,*42
1493852885.27,13053,13.63,73732.8,0.39,-0.41,-0.41,0,*43
1493852886.47,13054,13.63,73720.0,0.37,-0.41,-0.41,0,*4A
1493852887.65,13055,13.63,73724.0,0.39,-0.37,-0.37,0,*45
1493852888.86,13056,13.63,73730.3,0.37,-0.41,-0.41,0,*48
1493852890.03,13057,13.63,73730.0,0.39,-0.37,-0.37,0,*47
1493852891.21,13058,13.63,73734.5,0.39,-0.37,-0.37,0,*48
1493852892.38,13059,13.63,73738.3,0.39,-0.37,-0.37,0,*49
1493852893.56,13060,13.63,73732.5,0.39,-0.37,-0.37,0,*43
1493852894.74,13061,13.63,73730.0,0.39,-0.37,-0.37,0,*42
1493852895.91,13062,13.63,73730.3,0.39,-0.37,-0.37,0,*41
1493852897.09,13063,13.63,73730.8,0.39,-0.37,-0.41,0,*41
1493852898.27,13064,13.63,73726.0,0.39,-0.37,-0.41,0,*46
1493852899.48,13065,13.63,73720.3,0.37,-0.41,-0.41,0,*48
1493852900.68,13066,13.63,73724.0,0.37,-0.41,-0.41,0,*4B
1493852901.86,13067,13.63,73730.0,0.39,-0.37,-0.37,0,*44